Time,TemperatureF,DewpointF,PressureIn,WindDirection,WindDirectionDegrees,WindSpeedMPH,WindSpeedGustMPH,Humidity,HourlyPrecipIn,Conditions,Clouds,dailyrainin,SoftwareType,DateUTC
2013-07-21 00:02:00,78.0,72.0,29.86,SE,144,3.0,7.0,83,0.00,,,0.42,,2013-07-21 05:02:00,
2013-07-21 00:11:00,77.0,71.0,29.86,SE,144,5.0,7.0,83,0.00,,,0.42,,2013-07-21 05:11:00,
2013-07-21 00:22:00,77.0,71.0,29.85,SSE,150,3.0,8.0,83,0.00,,,0.42,,2013-07-21 05:22:00,
2013-07-21 00:32:00,77.0,71.0,29.85,SSE,152,3.0,6.0,83,0.00,,,0.42,,2013-07-21 05:32:00,
2013-07-21 00:42:00,77.0,72.0,29.85,SSE,153,5.0,7.0,84,0.00,,,0.42,,2013-07-21 05:42:00,
2013-07-21 00:52:00,77.0,72.0,29.85,SSE,151,3.0,6.0,84,0.00,,,0.42,,2013-07-21 05:52:00,
2013-07-21 01:01:00,77.0,72.0,29.85,SSE,150,3.0,6.0,85,0.00,,,0.42,,2013-07-21 06:01:00,
2013-07-21 01:11:00,77.0,72.0,29.85,SSE,150,1.0,7.0,85,0.00,,,0.42,,2013-07-21 06:11:00,
2013-07-21 01:22:00,76.0,71.0,29.84,SSE,152,2.0,8.0,85,0.00,,,0.42,,2013-07-21 06:22:00,
2013-07-21 01:32:00,76.0,72.0,29.84,SSE,157,4.0,7.0,86,0.00,,,0.42,,2013-07-21 06:32:00,
2013-07-21 01:42:00,76.0,72.0,29.84,SSE,156,3.0,7.0,86,0.00,,,0.42,,2013-07-21 06:42:00,
2013-07-21 01:52:00,76.0,72.0,29.84,SSE,155,2.0,6.0,86,0.00,,,0.42,,2013-07-21 06:52:00,
2013-07-21 02:01:00,76.0,72.0,29.84,SSE,155,3.0,7.0,86,0.00,,,0.42,,2013-07-21 07:01:00,
2013-07-21 02:11:00,76.0,72.0,29.85,SSE,154,3.0,7.0,87,0.00,,,0.42,,2013-07-21 07:11:00,
2013-07-21 02:22:00,75.0,71.0,29.85,SSE,154,4.0,8.0,87,0.00,,,0.42,,2013-07-21 07:22:00,
2013-07-21 02:32:00,75.0,71.0,29.85,SE,146,6.0,9.0,88,0.00,,,0.42,,2013-07-21 07:32:00,
2013-07-21 02:43:00,75.0,71.0,29.85,SE,144,6.0,8.0,88,0.00,,,0.42,,2013-07-21 07:43:00,
2013-07-21 02:52:00,75.0,71.0,29.85,SSE,148,3.0,10.0,88,0.00,,,0.42,,2013-07-21 07:52:00,
2013-07-21 03:01:00,75.0,71.0,29.85,SE,144,5.0,9.0,88,0.00,,,0.42,,2013-07-21 08:01:00,
2013-07-21 03:11:00,75.0,72.0,29.85,SE,142,4.0,9.0,89,0.00,,,0.42,,2013-07-21 08:11:00,
2013-07-21 03:22:00,75.0,72.0,29.85,SSE,153,5.0,10.0,89,0.00,,,0.42,,2013-07-21 08:22:00,
2013-07-21 03:33:00,75.0,72.0,29.84,SSE,160,6.0,9.0,89,0.00,,,0.42,,2013-07-21 08:33:00,
2013-07-21 03:43:00,75.0,72.0,29.84,SSE,149,5.0,8.0,89,0.00,,,0.42,,2013-07-21 08:43:00,
2013-07-21 03:52:00,74.0,71.0,29.84,SSE,152,6.0,10.0,89,0.00,,,0.42,,2013-07-21 08:52:00,
2013-07-21 04:02:00,74.0,71.0,29.85,SSE,157,6.0,9.0,89,0.00,,,0.42,,2013-07-21 09:02:00,
2013-07-21 04:12:00,74.0,71.0,29.84,SSE,155,6.0,8.0,89,0.00,,,0.42,,2013-07-21 09:12:00,
2013-07-21 04:22:00,74.0,71.0,29.85,SSE,154,5.0,8.0,89,0.00,,,0.42,,2013-07-21 09:22:00,
2013-07-21 04:32:00,74.0,71.0,29.84,SSE,159,4.0,8.0,90,0.00,,,0.42,,2013-07-21 09:32:00,
2013-07-21 04:42:00,74.0,71.0,29.85,SSE,155,4.0,9.0,90,0.00,,,0.42,,2013-07-21 09:42:00,
2013-07-21 04:52:00,74.0,71.0,29.85,SSE,152,4.0,9.0,90,0.00,,,0.42,,2013-07-21 09:52:00,
2013-07-21 05:01:00,74.0,71.0,29.85,SSE,155,4.0,8.0,90,0.00,,,0.42,,2013-07-21 10:01:00,
2013-07-21 05:11:00,74.0,71.0,29.85,SSE,158,2.0,6.0,90,0.00,,,0.42,,2013-07-21 10:11:00,
2013-07-21 05:22:00,74.0,71.0,29.85,SSE,155,6.0,8.0,90,0.00,,,0.42,,2013-07-21 10:22:00,
2013-07-21 05:32:00,74.0,71.0,29.84,SSE,151,5.0,9.0,90,0.00,,,0.42,,2013-07-21 10:32:00,
2013-07-21 05:43:00,74.0,71.0,29.84,SSE,157,4.0,8.0,90,0.00,,,0.42,,2013-07-21 10:43:00,
2013-07-21 05:52:00,74.0,71.0,29.84,SSE,151,5.0,9.0,90,0.00,,,0.42,,2013-07-21 10:52:00,
2013-07-21 06:02:00,74.0,71.0,29.84,SSE,151,3.0,7.0,91,0.00,,,0.42,,2013-07-21 11:02:00,
2013-07-21 06:12:00,74.0,71.0,29.85,SSE,153,4.0,8.0,91,0.00,,,0.42,,2013-07-21 11:12:00,
2013-07-21 06:22:00,74.0,71.0,29.85,SSE,155,2.0,7.0,91,0.00,,,0.42,,2013-07-21 11:22:00,
2013-07-21 06:32:00,74.0,71.0,29.85,SSE,155,4.0,7.0,91,0.00,,,0.42,,2013-07-21 11:32:00,
2013-07-21 06:43:00,74.0,71.0,29.85,SSE,154,2.0,7.0,91,0.00,,,0.42,,2013-07-21 11:43:00,
2013-07-21 06:52:00,74.0,72.0,29.85,SSE,154,3.0,6.0,92,0.00,,,0.42,,2013-07-21 11:52:00,
2013-07-21 07:01:00,73.0,71.0,29.85,SSE,154,2.0,3.0,92,0.00,,,0.42,,2013-07-21 12:01:00,
2013-07-21 07:11:00,73.0,71.0,29.85,SSE,154,2.0,5.0,92,0.00,,,0.42,,2013-07-21 12:11:00,
2013-07-21 07:22:00,73.0,71.0,29.85,SSE,154,3.0,5.0,92,0.00,,,0.42,,2013-07-21 12:22:00,
2013-07-21 07:32:00,74.0,72.0,29.85,SSE,154,1.0,5.0,93,0.00,,,0.42,,2013-07-21 12:32:00,
2013-07-21 07:43:00,74.0,72.0,29.86,SSE,154,1.0,5.0,92,0.00,,,0.42,,2013-07-21 12:43:00,
2013-07-21 07:53:00,74.0,72.0,29.85,SSE,153,2.0,5.0,92,0.00,,,0.42,,2013-07-21 12:53:00,
2013-07-21 08:01:00,75.0,72.0,29.86,SSE,153,3.0,7.0,91,0.00,,,0.42,,2013-07-21 13:01:00,
2013-07-21 08:12:00,75.0,72.0,29.86,SSE,153,2.0,7.0,91,0.00,,,0.42,,2013-07-21 13:12:00,
2013-07-21 08:22:00,76.0,73.0,29.86,SSE,167,7.0,12.0,89,0.00,,,0.42,,2013-07-21 13:22:00,
2013-07-21 08:32:00,77.0,73.0,29.86,SSE,167,2.0,7.0,88,0.00,,,0.42,,2013-07-21 13:32:00,
2013-07-21 08:42:00,78.0,73.0,29.86,South,173,4.0,8.0,86,0.00,,,0.42,,2013-07-21 13:42:00,
2013-07-21 08:52:00,78.0,73.0,29.86,South,169,3.0,8.0,86,0.00,,,0.42,,2013-07-21 13:52:00,
2013-07-21 09:01:00,79.0,74.0,29.86,South,171,6.0,9.0,84,0.00,,,0.42,,2013-07-21 14:01:00,
2013-07-21 09:12:00,80.0,74.0,29.87,South,183,5.0,9.0,82,0.00,,,0.42,,2013-07-21 14:12:00,
2013-07-21 09:22:00,80.0,74.0,29.87,South,188,7.0,13.0,82,0.00,,,0.42,,2013-07-21 14:22:00,
2013-07-21 09:32:00,81.0,74.0,29.87,SSW,192,5.0,12.0,79,0.00,,,0.42,,2013-07-21 14:32:00,
2013-07-21 09:43:00,82.0,74.0,29.87,South,175,8.0,16.0,78,0.00,,,0.42,,2013-07-21 14:43:00,
2013-07-21 09:53:00,82.0,74.0,29.87,South,180,6.0,13.0,77,0.00,,,0.42,,2013-07-21 14:53:00,
2013-07-21 10:02:00,83.0,75.0,29.86,SSW,194,7.0,12.0,76,0.00,,,0.42,,2013-07-21 15:02:00,
2013-07-21 10:11:00,83.0,75.0,29.86,South,184,6.0,12.0,76,0.00,,,0.42,,2013-07-21 15:11:00,
2013-07-21 10:22:00,84.0,75.0,29.87,South,184,7.0,10.0,74,0.00,,,0.42,,2013-07-21 15:22:00,
2013-07-21 10:32:00,85.0,75.0,29.87,SSW,201,7.0,12.0,73,0.00,,,0.42,,2013-07-21 15:32:00,
2013-07-21 10:42:00,84.0,74.0,29.87,South,183,9.0,18.0,72,0.00,,,0.42,,2013-07-21 15:42:00,
2013-07-21 10:53:00,85.0,75.0,29.87,South,183,6.0,14.0,72,0.00,,,0.42,,2013-07-21 15:53:00,
2013-07-21 11:01:00,86.0,75.0,29.87,SSW,193,7.0,14.0,71,0.00,,,0.42,,2013-07-21 16:01:00,
2013-07-21 11:11:00,86.0,75.0,29.88,SSE,167,6.0,13.0,71,0.00,,,0.42,,2013-07-21 16:11:00,
2013-07-21 11:22:00,87.0,75.0,29.88,SSE,160,7.0,12.0,68,0.00,,,0.42,,2013-07-21 16:22:00,
2013-07-21 11:32:00,87.0,75.0,29.88,South,171,9.0,14.0,67,0.00,,,0.42,,2013-07-21 16:32:00,
2013-07-21 11:43:00,88.0,75.0,29.88,SSW,199,5.0,13.0,66,0.00,,,0.42,,2013-07-21 16:43:00,
2013-07-21 11:52:00,88.0,75.0,29.87,South,191,10.0,18.0,66,0.00,,,0.42,,2013-07-21 16:52:00,
2013-07-21 12:02:00,88.0,75.0,29.87,SSW,195,6.0,12.0,65,0.00,,,0.42,,2013-07-21 17:02:00,
2013-07-21 12:11:00,89.0,76.0,29.86,South,171,7.0,12.0,65,0.00,,,0.42,,2013-07-21 17:11:00,
2013-07-21 12:22:00,89.0,76.0,29.86,South,171,7.0,12.0,65,0.00,,,0.42,,2013-07-21 17:22:00,
2013-07-21 12:33:00,89.0,74.0,29.86,SSE,158,2.0,8.0,62,0.00,,,0.42,,2013-07-21 17:33:00,
2013-07-21 12:42:00,90.0,75.0,29.86,South,175,7.0,12.0,62,0.00,,,0.42,,2013-07-21 17:42:00,
2013-07-21 12:53:00,90.0,75.0,29.86,SSE,157,7.0,14.0,62,0.00,,,0.42,,2013-07-21 17:53:00,
2013-07-21 13:01:00,91.0,75.0,29.86,SSW,206,9.0,16.0,59,0.00,,,0.42,,2013-07-21 18:01:00,
2013-07-21 13:11:00,91.0,75.0,29.85,SE,146,6.0,15.0,60,0.00,,,0.42,,2013-07-21 18:11:00,
2013-07-21 13:21:00,92.0,75.0,29.85,South,173,6.0,10.0,57,0.00,,,0.42,,2013-07-21 18:21:00,
2013-07-21 13:32:00,91.0,73.0,29.85,SSW,206,2.0,7.0,56,0.00,,,0.42,,2013-07-21 18:32:00,
2013-07-21 13:43:00,91.0,74.0,29.85,SSW,195,2.0,9.0,58,0.00,,,0.42,,2013-07-21 18:43:00,
2013-07-21 13:52:00,92.0,74.0,29.85,SE,128,7.0,13.0,56,0.00,,,0.42,,2013-07-21 18:52:00,
2013-07-21 14:01:00,93.0,74.0,29.84,SE,131,6.0,12.0,54,0.00,,,0.42,,2013-07-21 19:01:00,
2013-07-21 14:11:00,92.0,73.0,29.84,SSW,211,6.0,12.0,54,0.00,,,0.42,,2013-07-21 19:11:00,
2013-07-21 14:22:00,92.0,73.0,29.83,SSW,209,3.0,9.0,55,0.00,,,0.42,,2013-07-21 19:22:00,
2013-07-21 14:32:00,92.0,73.0,29.83,South,178,5.0,12.0,55,0.00,,,0.42,,2013-07-21 19:32:00,
2013-07-21 14:42:00,91.0,73.0,29.83,South,186,1.0,6.0,55,0.00,,,0.42,,2013-07-21 19:42:00,
2013-07-21 14:52:00,92.0,74.0,29.83,South,190,0.0,5.0,56,0.00,,,0.42,,2013-07-21 19:52:00,
2013-07-21 15:01:00,93.0,74.0,29.82,South,186,1.0,5.0,54,0.00,,,0.42,,2013-07-21 20:01:00,
2013-07-21 15:11:00,94.0,74.0,29.82,SSE,167,3.0,9.0,52,0.00,,,0.42,,2013-07-21 20:11:00,
2013-07-21 15:22:00,94.0,74.0,29.82,South,171,4.0,10.0,52,0.00,,,0.42,,2013-07-21 20:22:00,
2013-07-21 15:32:00,94.0,74.0,29.82,SSE,161,6.0,10.0,52,0.00,,,0.42,,2013-07-21 20:32:00,
2013-07-21 15:42:00,93.0,72.0,29.82,South,187,5.0,16.0,51,0.00,,,0.42,,2013-07-21 20:42:00,
2013-07-21 15:52:00,93.0,73.0,29.82,South,173,5.0,10.0,53,0.00,,,0.42,,2013-07-21 20:52:00,
2013-07-21 16:01:00,93.0,73.0,29.81,SE,140,6.0,18.0,52,0.00,,,0.42,,2013-07-21 21:01:00,
2013-07-21 16:11:00,94.0,74.0,29.80,SSE,163,3.0,7.0,53,0.00,,,0.42,,2013-07-21 21:11:00,
2013-07-21 16:22:00,94.0,73.0,29.80,SSE,148,3.0,8.0,51,0.00,,,0.42,,2013-07-21 21:22:00,
2013-07-21 16:32:00,94.0,72.0,29.80,SSE,154,8.0,14.0,50,0.00,,,0.42,,2013-07-21 21:32:00,
2013-07-21 16:43:00,94.0,73.0,29.80,SSE,159,2.0,7.0,51,0.00,,,0.42,,2013-07-21 21:43:00,
2013-07-21 16:52:00,93.0,72.0,29.79,SE,138,9.0,12.0,51,0.00,,,0.42,,2013-07-21 21:52:00,
2013-07-21 17:01:00,93.0,72.0,29.79,SE,137,8.0,12.0,51,0.00,,,0.42,,2013-07-21 22:01:00,
2013-07-21 17:11:00,94.0,73.0,29.79,SSE,152,6.0,10.0,51,0.00,,,0.35,,2013-07-21 22:11:00,
2013-07-21 17:22:00,94.0,72.0,29.78,SE,134,4.0,8.0,49,0.00,,,0.19,,2013-07-21 22:22:00,
2013-07-21 17:32:00,95.0,72.0,29.78,South,180,10.0,15.0,47,0.00,,,0.06,,2013-07-21 22:32:00,
2013-07-21 17:42:00,95.0,72.0,29.78,SE,144,6.0,16.0,48,0.00,,,0.00,,2013-07-21 22:42:00,
2013-07-21 17:52:00,95.0,72.0,29.78,South,186,10.0,20.0,47,0.00,,,0.00,,2013-07-21 22:52:00,
2013-07-21 18:01:00,95.0,72.0,29.78,SSE,151,5.0,12.0,48,0.00,,,0.00,,2013-07-21 23:01:00,
2013-07-21 18:11:00,95.0,72.0,29.78,SE,142,9.0,16.0,48,0.00,,,0.00,,2013-07-21 23:11:00,
2013-07-21 18:22:00,95.0,72.0,29.78,SE,142,5.0,12.0,48,0.00,,,0.00,,2013-07-21 23:22:00,
2013-07-21 18:32:00,94.0,71.0,29.78,South,172,6.0,12.0,48,0.00,,,0.00,,2013-07-21 23:32:00,
2013-07-21 18:42:00,94.0,71.0,29.78,South,191,5.0,12.0,48,0.00,,,0.00,,2013-07-21 23:42:00,
2013-07-21 18:52:00,94.0,72.0,29.78,South,177,6.0,14.0,49,0.00,,,0.00,,2013-07-21 23:52:00,
2013-07-21 19:01:00,94.0,72.0,29.78,South,189,7.0,12.0,49,0.00,,,0.00,,2013-07-22 00:01:00,
2013-07-21 19:11:00,94.0,72.0,29.78,South,187,7.0,12.0,49,0.00,,,0.00,,2013-07-22 00:11:00,
2013-07-21 19:22:00,94.0,72.0,29.78,South,169,6.0,13.0,50,0.00,,,0.00,,2013-07-22 00:22:00,
2013-07-21 19:32:00,94.0,72.0,29.78,SSE,164,4.0,9.0,49,0.00,,,0.00,,2013-07-22 00:32:00,
2013-07-21 19:42:00,94.0,72.0,29.78,SSE,164,4.0,9.0,49,0.00,,,0.00,,2013-07-22 00:42:00,
2013-07-21 19:52:00,93.0,72.0,29.78,SSE,151,5.0,10.0,50,0.00,,,0.00,,2013-07-22 00:52:00,
2013-07-21 20:02:00,93.0,72.0,29.78,SSE,161,8.0,14.0,51,0.00,,,0.00,,2013-07-22 01:02:00,
2013-07-21 20:11:00,93.0,72.0,29.78,SSE,160,7.0,13.0,50,0.00,,,0.00,,2013-07-22 01:11:00,
2013-07-21 20:22:00,92.0,71.0,29.79,SE,146,5.0,9.0,51,0.00,,,0.00,,2013-07-22 01:22:00,
2013-07-21 20:32:00,92.0,71.0,29.79,SSE,151,5.0,12.0,51,0.00,,,0.00,,2013-07-22 01:32:00,
2013-07-21 20:42:00,91.0,71.0,29.79,SSE,156,6.0,9.0,52,0.00,,,0.00,,2013-07-22 01:42:00,
2013-07-21 20:52:00,91.0,72.0,29.80,SSE,151,14.0,22.0,54,0.00,,,0.00,,2013-07-22 01:52:00,
2013-07-21 21:02:00,88.0,73.0,29.80,SE,136,13.0,20.0,61,0.00,,,0.00,,2013-07-22 02:02:00,
2013-07-21 21:11:00,87.0,73.0,29.81,South,183,11.0,20.0,63,0.00,,,0.00,,2013-07-22 02:11:00,
2013-07-21 21:22:00,87.0,74.0,29.81,SSE,151,12.0,22.0,65,0.00,,,0.00,,2013-07-22 02:22:00,
2013-07-21 21:32:00,86.0,73.0,29.81,SSE,167,9.0,16.0,66,0.00,,,0.00,,2013-07-22 02:32:00,
2013-07-21 21:43:00,86.0,73.0,29.81,SSE,148,7.0,15.0,65,0.00,,,0.00,,2013-07-22 02:43:00,
2013-07-21 21:52:00,86.0,73.0,29.81,SSE,156,6.0,13.0,66,0.00,,,0.00,,2013-07-22 02:52:00,
2013-07-21 22:01:00,85.0,73.0,29.81,SE,142,5.0,12.0,68,0.00,,,0.00,,2013-07-22 03:01:00,
2013-07-21 22:11:00,85.0,73.0,29.81,SE,144,8.0,13.0,68,0.00,,,0.00,,2013-07-22 03:11:00,
2013-07-21 22:22:00,85.0,73.0,29.82,SSE,148,6.0,12.0,68,0.00,,,0.00,,2013-07-22 03:22:00,
2013-07-21 22:33:00,84.0,72.0,29.82,South,182,8.0,16.0,68,0.00,,,0.00,,2013-07-22 03:33:00,
2013-07-21 22:43:00,84.0,73.0,29.82,SSE,154,7.0,15.0,69,0.00,,,0.00,,2013-07-22 03:43:00,
2013-07-21 22:53:00,84.0,73.0,29.83,SSE,156,8.0,15.0,70,0.00,,,0.00,,2013-07-22 03:53:00,
2013-07-21 23:01:00,83.0,72.0,29.83,SSE,152,7.0,13.0,70,0.00,,,0.00,,2013-07-22 04:01:00,
2013-07-21 23:12:00,83.0,73.0,29.84,SSE,165,7.0,18.0,71,0.00,,,0.00,,2013-07-22 04:12:00,
2013-07-21 23:22:00,83.0,73.0,29.84,SSE,155,8.0,23.0,71,0.00,,,0.00,,2013-07-22 04:22:00,
2013-07-21 23:33:00,83.0,73.0,29.84,SSE,148,9.0,22.0,72,0.00,,,0.00,,2013-07-22 04:33:00,
2013-07-21 23:43:00,82.0,72.0,29.84,South,170,7.0,16.0,73,0.00,,,0.00,,2013-07-22 04:43:00,